Location: Moscow
(55.7500°N, 37.5830°E)
Time: 17:01:51
(UTC+03:00)

Transit 2A - Pass Details

Date: 03 December 2021
Orbit: 591 x 967 km, 66.7° (Epoch: 21 January)

Event Time Altitude Azimuth Distance (km) Brightness Sun altitude
Rises 03:59:54 0° 269° (W) 3,480 - -37.5°
Reaches altitude 10° 04:02:35 10° 278° (W) 2,591 - -37.2°
Maximum altitude 04:08:07 35° 343° (NNW) 1,490 - -36.4°
Exits shadow 04:10:06 29° 18° (NNE) 1,690 7.9 -36.1°
Drops below altitude 10° 04:13:56 10° 48° (NE) 2,713 9.4 -35.6°
Sets 04:16:47 0° 58° (ENE) 3,665 10.4 -35.2°
